Regional Weather Roundup
Issued by NWS Newport/Morehead, NC

Current Version | Previous Version | Text Only | Print | Product List | Glossary On
Versions: 1 2 3 4 5 6 7 8 9 10 11 12 13 14 15 16 17 18 19 20 21 22 23 24 25 26 27 28 29 30 31 32 33 34 35 36 37 38 39 40 41 42 43 44 45 46 47 48 49 50
000 ASUS42 KMHX 210625 RWRMHX WEATHER ROUNDUP FOR EASTERN NORTH CAROLINA NATIONAL WEATHER SERVICE NEWPORT/MOREHEAD CITY NC 100 AM EST WED FEB 21 2018 NOTE: "FAIR" INDICATES FEW OR NO CLOUDS BELOW 12,000 FEET WITH NO SIGNIFICANT WEATHER AND/OR OBSTRUCTIONS TO VISIBILITY NCZ015>017-031-032-045>047-102-103-210700- NORTH COAST CITY SKY/WX TMP DP RH WIND PRES REMARKS EDENTON FAIR 65 64 95 S8 30.46F ELIZABETH CITY FAIR 65 65 100 S9 30.46S KITTY HAWK FAIR N/A N/A N/A CALM 30.47S HAZE MANTEO CLOUDY 59 59 100 S8 30.48F FOG $$ NCZ045>047-081-094-103-104-210700- CENTRAL COAST CITY SKY/WX TMP DP RH WIND PRES REMARKS FRISCO CLOUDY 65 64 97 SW8 30.49F $$ NCZ095-097-098-100-101-210700- SOUTHERN COAST CITY SKY/WX TMP DP RH WIND PRES REMARKS BEAUFORT FAIR 66 64 93 S8 30.48F CEDAR ISLAND NOT AVBL JACKSONVILLE MOCLDY 68 66 93 S5 30.46F PINEY ISLAND NOT AVBL WILMINGTON FAIR 64 63 96 S5 30.47S FOG $$ NCZ011>013-027>030-043-044-078>080-089-090>093-098-210700- COASTAL PLAIN CITY SKY/WX TMP DP RH WIND PRES REMARKS AHOSKIE MOCLDY 63 63 100 S6 30.45S FOG CLINTON CLOUDY 63 63 100 CALM 30.46S ELIZABETHTOWN NOT AVBL GOLDSBORO FAIR 65 64 97 SE3 30.44S GREENVILLE MOCLDY 63 63 100 S6 30.46S HAVELOCK NOT AVBL KENANSVILLE FOG 63 63 100 SE3 30.46F VSB 1/4 KINSTON FAIR 64 64 97 S6 30.46F FOG NEW BERN CLOUDY 67 66 97 S7 30.48S RICHLANDS NOT AVBL ROCKY MOUNT FAIR 64 63 96 S7 30.45S WASHINGTON FAIR 65 64 97 S3 30.47S FOG WHITEVILLE FAIR 64 63 97 SE3 30.44F $$ AMZ130-135-150-152-154-156-158-170-250-252-270-ANZ085-086-088-633-658-670-210700- MARINE OBSERVATIONS STATION/POSITION TIME TEMP WIND PRES WAVE SWELL AIR SEA DIR/SP/G HT/PER HT/PER (UTC) (F) (DEG/KT/KT) (MB) (FT/S) (FT/S) CHESAPEAKE LIGHT NOT AVBL 64 E VA BEACH 0550 58 53 190/ 14/ 14 1032.3 3/11 3/11 DUCK 0600 64 44 180/ 9/ 11 1031.3 2 E DUCK 0600 46 N/A 3/11 2/11 OREGON INLET 0600 59 58 170/ 6/ 7 1032.2 13E OREGON INLT 0548 47 N/A 4/11 3/11 HATTERAS CG 0600 65 58 180/ 4/ 6 1032.3 DIAMOND BUOY 0610 72 71 190/ 12/ 16 1032.9 CAPE LOOKOUT 0600 200/ 7/ 9 1032.4 BEAUFORT LAB 0600 62 56 190/ 5/ 6 1032.2 30 SE NEW RVR IN NOT AVBL 30 SE NEW RVR IN 0600 69 N/A 4/12 2/12 27 SE WRIGHTSVLE 0508 70 69 180/ 10/ 16 1032.0 5 SE WRIGHTSVLE 0608 61 57 220/ 2/ 6 1031.6 225 S CAPE HAT 0550 72 74 130/ 14/ 17 1032.3 5/12 3/12 41 SE CHARLESTON 0610 71 68 150/ 6/ 8 1030.6 $$

USA.gov is the U.S. government's official web portal to all federal, state and local government web resources and services.